Location: Traverse Island
(48.8167°N, 54.0667°W)
Time: 18:01:48
(UTC+00:00)

Daily predictions for brighter satellites

Satellite Brightness Start Highest point End
(mag) Time Altitude Azimuth Time Altitude Azimuth Time Altitude Azimuth
Cosmos 1464 Rocket 4.4 20:05:33 10° SSW 20:11:42 70° W 20:17:51 10° N
GEOS 3 Rocket 3.8 20:17:50 10° NE 20:23:14 71° SE 20:28:35 10° SSW
Cosmos 292 Rocket 3.9 20:19:00 10° SSW 20:23:48 81° WNW 20:28:37 10° NNE
Cosmos 2208 Rocket 4.5 20:20:15 10° N 20:25:04 38° ENE 20:29:52 10° SE
ARIANE 5 R/B 2.9 20:20:42 10° SE 20:25:22 39° ENE 20:30:07 10° N
Cosmos 2279 Rocket 4.4 20:20:54 10° SSE 20:26:41 43° E 20:32:31 10° NNE
Cosmos 1092 Rocket 4.0 20:20:49 10° N 20:27:01 83° E 20:33:10 10° S
CENTAUR R/B 2.5 20:22:13 10° SW 20:27:47 89° SE 20:34:57 10° NE
Lacrosse 4 Rocket 1.3 20:24:01 10° SSW 20:28:07 89° NW 20:32:10 10° NNE
Cosmos 1455 Rocket 3.1 20:24:43 10° SSW 20:29:02 81° WNW 20:33:25 10° N
CZ-4C R/B 3.2 20:28:23 10° NW 20:34:31 42° NE 20:42:10 10° ESE
IRS-1C 4.3 20:30:50 10° SE 20:35:56 49° ENE 20:41:03 10° N
BREEZE M DEB (TANK) 4.0 20:36:41 10° SSW 20:38:29 16° SSE 20:39:55 10° ESE
Cosmos 2034 Rocket 4.5 20:32:39 10° SSW 20:38:55 66° WNW 20:45:17 10° N
NOSS 2-2 (D) 3.9 20:36:08 10° S 20:39:09 29° SE 20:41:14 14° ENE
IGS 5A 3.4 20:37:14 10° SSE 20:41:12 83° WSW 20:45:12 10° NNW
USA 290 3.5 20:39:31 10° N 20:42:08 22° ENE 20:44:44 10° ESE
USA 215 3.8 20:36:14 10° ENE 20:42:16 44° N 20:48:24 10° WNW
BlueWalker 3 1.7 20:41:37 10° WNW 20:45:15 75° NNE 20:48:53 10° ESE
CBERS-1 4.4 20:40:18 10° S 20:45:24 71° WSW 20:50:32 10° NNW
YAOGAN 1 3.9 20:42:43 10° ESE 20:45:36 18° ENE 20:48:29 10° NNE
Cosmos 2084 3.7 20:41:28 10° SW 20:45:37 62° NW 20:49:29 12° NE
Meteor 1-27 4.3 20:39:50 10° S 20:45:40 87° E 20:51:29 10° NNE
NOSS 2-2 (E) 4.0 20:43:02 10° S 20:46:00 27° SE 20:47:44 17° ENE
Cosmos 2084 Rocket 4.4 20:44:50 10° NNW 20:48:29 27° NNE 20:51:10 15° E
CZ-2D R/B 3.0 20:45:51 10° SE 20:48:51 43° ENE 20:51:51 10° N
Cosmos 2297 Rocket 2.4 20:43:35 10° NNW 20:49:05 48° NE 20:54:34 10° SE
Cosmos 1484 Rocket 3.8 20:46:26 10° S 20:49:49 45° W 20:53:14 10° NNW
Thor Agena Rocket 3.7 20:48:35 10° SSE 20:53:49 81° WSW 20:59:02 10° NNW
Cosmos 1656 3.9 20:50:58 10° S 20:56:22 52° ESE 21:01:30 12° NE
SL-16 R/B 2.9 20:51:50 10° NNE 20:58:02 69° WNW 21:04:11 10° SSW
Cosmos 1743 2.5 20:56:17 10° N 20:59:26 45° ENE 21:02:33 10° SSE
Cosmos 724 4.4 20:54:14 10° NNW 21:00:13 56° NE 21:06:02 10° ESE
Cosmos 1733 1.2 20:59:40 10° N 21:01:37 68° E 21:03:33 10° SSE
Cosmos 2266 Rocket 4.1 20:56:13 10° N 21:02:15 51° ENE 21:08:09 10° SSE
Cosmos 1315 Rocket 3.5 20:58:55 10° SSW 21:02:40 53° WNW 21:06:27 10° N
SAR-Lupe-4 3.4 20:59:21 10° SSE 21:02:53 75° ENE 21:06:28 10° N
Meteor 1-28 Rocket 3.8 21:00:10 10° N 21:03:27 49° WNW 21:06:40 10° SSW
Cosmos 1825 Rocket 4.4 21:00:33 10° N 21:04:20 27° ENE 21:08:03 10° SE
Cosmos 1758 Rocket 3.4 21:00:54 10° N 21:05:15 82° E 21:09:33 10° SSE
Cosmos 2098 Rocket 2.9 21:04:37 10° S 21:08:22 63° E 21:12:52 10° NNE
ATLAS CENTAUR R/B 0.7 21:05:10 10° NNW 21:08:24 56° NE 21:10:44 17° SE
SAR-Lupe-1 3.9 21:05:50 10° SSE 21:09:25 78° ENE 21:13:02 10° NNW
Cosmos 1356 Rocket 4.3 21:05:32 10° SSW 21:09:27 49° WNW 21:13:26 10° N
Lacrosse 5 rocket 1.4 21:05:51 10° WSW 21:09:34 58° NNW 21:11:38 23° NE
Cosmos 1607 3.9 21:03:27 10° NW 21:09:39 63° NE 21:15:52 10° SE
Cosmos 2228 3.6 21:07:36 10° SSW 21:11:46 56° WNW 21:15:58 10° N
IRIDIUM 104 4.3 21:06:34 10° N 21:11:47 62° E 21:16:56 10° SSE
SJ-6F 4.3 21:08:52 10° SSE 21:12:47 64° ENE 21:16:45 10° N
SMAP 3.5 21:08:16 10° S 21:12:53 67° WSW 21:17:32 10° NNW
AQUARIUS 4.0 21:08:33 10° SSE 21:12:57 75° ENE 21:17:22 10° N
Cosmos 1980 Rocket 4.1 21:15:30 10° ESE 21:16:05 11° ESE 21:16:05 11° ESE
NOSS 3-2 (C) 3.6 21:13:39 10° S 21:18:15 38° ESE 21:20:52 24° ENE
SJ-12 3.8 21:14:43 10° S 21:18:29 80° WSW 21:22:18 10° NNW
Cosmos 1782 2.5 21:14:57 10° S 21:18:33 82° WNW 21:22:10 10° N
Landsat 7 4.0 21:14:40 10° S 21:19:19 75° WSW 21:24:00 10° NNW
NOSS 3-2 (A) 3.1 21:15:23 10° SW 21:20:25 89° SE 21:24:44 19° NE
IRIDIUM 114 4.2 21:15:41 10° N 21:20:56 75° E 21:26:09 10° S
Spot 4 Rocket 4.3 21:17:22 10° SE 21:22:11 44° ENE 21:27:02 10° N
Cosmos 1933 3.7 21:20:13 10° SSE 21:23:45 36° E 21:24:19 34° ENE
IRS-P3 4.1 21:20:47 10° SSE 21:26:06 88° ENE 21:31:28 10° NNW
NOSS 2-2 (C) 3.7 21:26:08 10° WSW 21:29:08 39° NW 21:30:16 27° N
IRIDIUM 103 4.3 21:24:51 10° N 21:30:06 88° E 21:35:20 10° S
BREEZE M DEB (TANK) 3.9 21:18:30 10° WNW 21:30:22 61° SSW 21:33:19 16° SE
UNK 4.4 21:26:58 10° N 21:31:27 54° WNW 21:35:53 10° SSW
Cosmos 2263 Rocket 2.9 21:27:10 10° NNW 21:32:11 31° NE 21:33:06 29° ENE
Cosmos 1867 3.7 21:26:54 10° NNW 21:32:17 53° NE 21:35:19 25° ESE
Cosmos 2360 4.1 21:27:00 10° SSW 21:32:41 72° ESE 21:36:34 21° NE
Cosmos 1777 Rocket 3.9 21:29:50 10° S 21:35:02 66° ESE 21:38:13 24° NNE
Cosmos 1606 Rocket 3.6 21:34:32 10° S 21:38:48 53° E 21:40:24 34° NE
Cosmos 2227 Rocket 2.3 21:34:25 10° NNW 21:39:57 52° NE 21:43:20 23° ESE
MOS 1 Rocket 3.7 21:36:42 10° S 21:41:28 68° W 21:46:33 10° NNW
Okean 1-7 Rocket 3.4 21:38:14 10° N 21:42:41 86° E 21:47:03 10° S
Resurs 1-3 3.5 21:41:00 10° SSE 21:45:13 60° ENE 21:49:28 10° N
Cosmos 2369 Rocket 4.4 21:41:46 10° WNW 21:45:21 17° NW 21:48:58 10° N
IRAS Rocket 4.1 21:42:37 10° SSE 21:48:02 64° ENE 21:53:28 10° NNW
Cosmos 1486 Rocket 4.0 21:43:14 10° SSW 21:48:26 79° WNW 21:52:02 21° NNE
Cosmos 1655 Rocket 3.9 21:42:41 10° N 21:48:54 61° ENE 21:55:03 10° SSE
Cosmos 2151 3.5 21:45:17 10° NNW 21:49:22 57° W 21:53:25 10° S
USA 81 4.2 21:47:37 10° N 21:52:42 45° ENE 21:57:43 10° SSE
Cosmos 1900 4.2 21:51:30 10° NW 21:56:36 78° NE 21:58:28 39° SE
SKYMED 2 3.5 21:56:31 33° NNE 21:58:29 89° W 22:02:49 10° SSW
Cosmos 1697 Rocket 2.7 21:54:19 10° S 21:59:48 57° ESE 22:00:55 48° ENE
Gbstr 26 Del rocket 4.3 21:58:36 10° SSW 22:00:57 24° S 22:00:57 24° S
SPOT 1/Viking Rocket 3.9 21:59:17 10° S 22:04:27 66° WSW 22:09:40 10° NNW
ARIANE 5 R/B 4.3 22:00:01 10° SSW 22:04:29 32° W 22:09:02 10° NNW
NOAA 6 3.9 21:59:59 10° SSE 22:05:03 70° ENE 22:10:09 10° N
Cosmos 1726 Rocket 3.5 22:01:21 10° S 22:06:00 75° E 22:06:29 67° NE
Lacrosse 4 Rocket 3.7 22:03:58 10° WNW 22:06:32 16° NW 22:08:13 13° N
Meteor 2-20 4.3 22:02:19 10° S 22:08:23 64° E 22:11:51 27° NNE
COSMO-SKYMED 1 2.6 22:13:09 65° S 22:13:09 65° S 22:16:41 10° SSW
PSLV R/B 3.4 22:13:58 75° SW 22:14:05 76° WSW 22:18:09 10° NNW
USA 290 4.4 22:13:40 10° NW 22:16:29 26° WSW 22:19:13 10° SSW
USA 238 DEB 4.3 22:12:07 10° S 22:16:10 32° SE 22:16:10 32° SE
USA 238 4.3 22:12:14 10° S 22:16:13 32° SE 22:16:13 32° SE
CENTAUR R/B 3.8 22:13:43 10° W 22:19:20 34° NNW 22:22:46 23° NNE
Cosmos 990 Rocket 3.8 22:15:00 10° SSW 22:20:06 79° ESE 22:20:08 79° ESE
YAOGAN 1 3.1 22:16:51 10° S 22:21:02 58° W 22:25:15 10° NNW
BlueWalker 3 3.7 22:19:29 10° W 22:22:31 25° SW 22:22:52 25° SSW
CZ-4C R/B 3.1 22:16:24 10° NW 22:23:22 72° SW 22:32:01 10° SSE
BREEZE-M DEB (TANK) 4.4 22:17:07 10° SSW 22:23:02 30° SSE 22:23:02 30° SSE
USA 215 3.3 22:23:35 54° ENE 22:24:43 62° NNE 22:31:11 10° NW
Cosmos 1461 3.8 22:22:51 10° SW 22:25:25 40° SW 22:25:25 40° SW
Cosmos 2084 Rocket 4.0 22:23:24 10° NW 22:27:03 55° W 22:27:03 55° W
Meteor 2-20 Rocket 4.4 22:24:49 10° S 22:30:37 66° ESE 22:30:37 66° ESE
Cosmos 2297 Rocket 3.9 22:27:57 10° NW 22:32:56 33° WSW 22:37:54 10° SSW
USA 281 4.3 22:36:11 28° NNE 22:36:11 28° NNE 22:39:54 10° NNW
ATLAS CENTAUR R/B 3.9 22:41:16 10° W 22:42:49 13° WSW 22:43:06 13° WSW
Cosmos 2219 4.1 22:40:19 10° NNW 22:43:59 39° N 22:43:59 39° N
BREEZE-M DEB (TANK) 4.3 22:42:50 10° WNW 22:47:06 81° SSW 22:48:51 58° ESE
Lacrosse 5 rocket 3.7 22:44:04 10° WNW 22:45:15 16° NW 22:45:15 16° NW
Cosmos 1980 Rocket 3.6 22:55:21 10° SSW 22:57:53 28° SSW 22:57:53 28° SSW
NOSS 3-2 (C) 4.0 23:03:50 10° WSW 23:08:18 46° NW 23:08:18 46° NW
Cosmos 2263 Rocket 3.2 23:10:52 10° NW 23:14:49 42° WNW 23:14:49 42° WNW
Cosmos 2227 Rocket 3.9 23:18:54 10° NW 23:23:43 30° WSW 23:25:15 26° SW
